Regional Weather Roundup
Issued by NWS Wakefield, VA

Home | Current Version | Previous Version | Graphics & Text | Print | Product List | Glossary Off
Versions: 1 2 3 4 5 6 7 8 9 10 11 12 13 14 15 16 17 18 19 20 21 22 23 24 25 26 27

000
ASUS41 KAKQ 311715
RWRAKQ

REGIONAL WEATHER ROUNDUP
NATIONAL WEATHER SERVICE WAKEFIELD VA
100 PM EDT TUE MAY 31 2016

Note: "fair" indicates few or no clouds below 12,000 feet with no
significant weather and/or obstructions to visibility. * = Denotes
station may not report precipitation (e.g., rain,snow,etc.),
thunder or fog.

VAZ042-051-052>054-056-311800-
NORTHERN VIRGINIA

CITY           SKY/WX    TMP DP  RH WIND       PRES   REMARKS
WASH NATIONAL  PTSUNNY   84  68  58 CALM      29.98F
DULLES         PTSUNNY   83  65  54 NE9       29.98F
FORT BELVOIR   NOT AVBL
QUANTICO       FAIR      79  71  76 SW7       29.99F
FREDERICKSBRG* FAIR      82  71  68 E6        29.98F
STAFFORD*      PTSUNNY   80  67  64 E7        30.03S
WARRENTON      PTSUNNY   84  60  44 N3        29.99S
CULPEPER*      PTSUNNY   85  67  54 NE5       29.99F
MANASSAS*      PTSUNNY   84  66  54 SE7       29.98F
LEESBURG*      FAIR      86  63  45 N8        30.00S
WINCHESTER     FAIR      82  59  44 NW3       30.01S
FRONT ROYAL*   FAIR      81  64  57 E3        30.01S
LURAY*         FAIR      81  57  44 N6        30.02S
$$

VAZ048-049-060>072-079>083-311800-
CENTRAL AND SOUTH CENTRAL VIRGINIA

CITY           SKY/WX    TMP DP  RH WIND       PRES   REMARKS
RICHMOND       PTSUNNY   80  68  66 NE3       29.98F
CHESTERFIELD*    N/A    N/A N/A N/A MISG        N/A
PETERSBURG*    FAIR      80  68  66 E5        30.00S
HANOVER        FAIR      81  66  60 VRB3      30.00F
TAPPAHANNOCK*  FAIR      81  68  64 NE5       30.00S
QUINTON*       PTSUNNY   79  70  74 E7        29.98S
CHARLOTTSVILLE FAIR      84  65  52 NE7       30.00S
GORDONSVILLE*  FAIR      83  68  60 E6        29.99F
ORANGE*        PTSUNNY   82  68  61 NE6       30.01S
LOUISA*        FAIR      82  72  69 CALM      30.00S
BUMPASS*       FAIR      78  68  71 N5        30.00F
FARMVILLE*     PTSUNNY   82  67  61 N6        29.98F
CREWE*         FAIR      79  71  77 NE3       29.99F
FORT PICKETT*  NOT AVBL
CHASE CITY*    PTSUNNY   79  69  69 NE5       29.99F
CLARKSVILLE*   FAIR      81  70  69 E5        29.99S
SOUTH HILL*    FAIR      79  67  67 NE3       30.04F
LAWRENCEVILLE* PTSUNNY   80  70  71 E6        29.99S
EMPORIA*       PTSUNNY   79  68  69 NE6       29.99F
$$

VAZ088>098-311800-
SOUTHEAST VIRGINIA

CITY           SKY/WX    TMP DP  RH WIND       PRES   REMARKS
NORFOLK        FAIR      75  68  78 NE9       29.98F
VIRGINIA BEACH PTSUNNY   82  68  62 NE8       29.97F
NORFOLK NAVAL  PTSUNNY   77  68  73 VRB5      30.00S
WEST POINT*    PTSUNNY   79  66  65 E6        30.00S
SALUDA*        FAIR      74  70  87 SE9       29.99S
NEWPORT NEWS   PTSUNNY   79  70  74 E8        29.99S
LANGLEY AFB    MOSUNNY   74  69  86 NE7       29.99S
FORT EUSTIS    FAIR      81  74  81 NE8       29.97S
WILLIAMSBURG*  FAIR      81  72  74 CALM      30.00S
HR EXEC AP*    FAIR      79  70  73 E6        30.00S
FRANKLIN*      FAIR      80  69  68 E8        29.98F
US460-WAKEFLD  PTSUNNY   79  68  69 VRB5      29.98F
$$

VAZ020-022-025-037-045-311800-
WEST CENTRAL AND SOUTHWEST VIRGINIA

CITY           SKY/WX    TMP DP  RH WIND       PRES   REMARKS
STAUNTON*      FAIR      79  61  53 N6        30.05S
WAYNESBORO*    FAIR      80  57  45 N9        30.04S
HOT SPRINGS VA FAIR      72  58  60 E3        30.14S
LYNCHBURG      FAIR      81  63  54 NE6       30.02S
DANVILLE       FAIR      83  67  58 NE8       29.99S
SOUTH BOSTON*  PTSUNNY   81  69  65 E5        29.99F
MARTINSVILLE   FAIR      82  66  58 N3        30.02F
ROANOKE        FAIR      81  65  58 VRB3      30.03F
BLACKSBURG     FAIR      77  65  66 E7        30.08F
DUBLIN*        FAIR      81  63  54 NE6       30.07F
MARION*        FAIR      80  60  50 E7        30.09F
HILLSVILLE*    PTSUNNY   77  61  56 E7        30.07F
RICHLANDS*     FAIR      79  55  43 NE3       30.08S
WISE*          FAIR      79  54  41 CALM      30.10S
ABINGDON*      FAIR      82  62  49 N5        30.04F
$$

MDZ021>025-VAZ099-100-311800-
SOUTHERN MARYLAND AND THE DELMARVA PENINSULA

CITY           SKY/WX    TMP DP  RH WIND       PRES   REMARKS
PATUXENT RIVER MOSUNNY   80  66  62 VRB3      29.98F
BAY BRIDGE APT SUNNY     77  70  78 NW7       29.99S
LEONARDTOWN    PTSUNNY   77  64  65 CALM      30.00F
DOVER          MOSUNNY   80  73  79 VRB5      29.96S
GEORGETOWN     PTSUNNY   79  66  64 VRB3      29.97F
EASTON         PTSUNNY   81  73  78 NW7       30.02S
CAMBRIDGE      PTSUNNY   77  66  69 CALM      29.97F
SALISBURY      PTSUNNY   79  68  69 N6        29.97F
OCEAN CITY     SUNNY     73  66  78 SE8       29.98F
WALLOPS ISLAND FAIR      77  70  79 SE6       29.98F
ACCOMACK*      CLOUDY    75  68  78 SE3       29.98F
$$

NCZ012>017-030>032-311800-
NORTH CENTRAL AND EASTERN NORTH CAROLINA

CITY           SKY/WX    TMP DP  RH WIND       PRES   REMARKS
ROANOKE RAPIDS PTSUNNY   79  68  69 NE6       29.98F
RALEIGH        PTSUNNY   82  68  62 NE6       29.98S
ELIZABETH CITY CLOUDY    80  70  71 E10       29.97F
AHOSKIE*       MOSUNNY   78  67  70 NE5       29.98S
EDENTON*       PTSUNNY  N/A N/A N/A E7        29.97F
CURRITUCK*     CLOUDY    76  69  78 NE7       29.99S
KILL DEVIL HLS CLOUDY    75  68  78 NE5       29.97F
MANTEO         PTSUNNY   74  71  90 E8        29.98F
CAPE HATTERAS  CLOUDY    77  72  84 NE8       29.96S
TARBORO*       FAIR      83  70  64 NE5       29.97F
GOLDSBORO      MOSUNNY   83  73  70 NE10      29.93F
WASHINGTON     MOSUNNY   80  70  71 NE6       29.95F HAZE
GREENVILLE     PTSUNNY   81  70  69 NE9       29.98S
NEW BERN       RAIN      73  71  93 E8        29.96R FOG
WILMINGTON     CLOUDY    78  71  79 E9        29.91S
$$

VAZ048-311800-
ELSEWHERE

CITY           SKY/WX    TMP DP  RH WIND       PRES   REMARKS
HARRISBURG PA  MOSUNNY   82  57  42 N9        29.98F
BALTIMORE      PTSUNNY   83  67  58 E7        29.97F
ANNAPOLIS      MOSUNNY   77  69  76 SE7       29.98S
ANDREWS AFB    MOSUNNY   80  67  65 E3        29.98F
PHILADELPHIA   MOSUNNY   84  55  36 E6        29.96S
HENDERSON NC   SUNNY     78  65  64 E6        29.99S
GREENSBORO     PTSUNNY   84  65  52 E6        29.98F
ROCKY MOUNT    PTSUNNY   81  68  64 N9        29.97S
$$

VAZ100-311800-
MARINE

STATION/POSITION TIME  TEMP    WIND        PRES    WAVE   SWELL
                       AIR SEA DIR/SP/G            HT/PER HT/PER
                 (UTC) (F)     (DEG/KT/KT) (MB)    (FT/S) (FT/S)
BRANDYWINE LGT   1600   69     190/  5/  5 1015.4S
CAPE MAY NJ      1600   70 69  250/  7/  7 1015.0F
LEWES DE         1600   73 63   40/  2/  2 1015.3R
15NM E FENWICK I 1650   71 69              1015.6R   4/ 8
OCEAN-CITY-INLET 1600   70 69  100/  4/  5 1015.8R
WACHAPREAGUE VA  1600   73 75  130/  6/  8 1014.9S
THOMAS POINT MD  1700   76 69   CALM  /  1 1016.7F
GOOSES REEF MD   1700   75 75   CALM  /  2 1016.6S   0
COVE POINT MD    1600   70     190/  5/  6 1016.2R
SOLOMONS ISLAND  1600   72 68   90/  5/  7   N/A
BISHOPS HEAD MD  1600   73 74  230/  5/  6 1015.8R
PINEY POINT MD   1600          170/  5/  6   N/A
POTOMAC MD       1700   71 71  120/  4/  6 1014.5F   0
CAMBRIDGE MD     1600   76 70   50/  2/  3 1014.5R
LEWISETTA VA     1600   72 72   90/  3/  5 1015.3F
RAPPAHANNOCK LGT 1600          360/  9/  9 1016.1R
STINGRAY PT      1600   71 71   70/  6/  6 1016.1R   0
YORK RVR RNG VA  1600   71      80/  8/  9 1015.1R
YORKTOWN VA      1600   71 71   90/  9/ 10 1015.3R
JAMESTOWN VA     1700   76 75  150/  8/ 10   N/A     0
DOMINION TERM VA 1600   72      80/  7/  9 1015.6R
KIPTOPEKE VA     1600      69  290/  3/  4   N/A
CHES BAY BRIDGE  1600   70 70   60/  6/  6 1015.5R
CAPE HENRY VA    1600   71      70/  4/  5   N/A
CHESAPEAKE LGHT  1600   69      40/  5/  5 1016.3R
WILLOUBY STN VA  1600   72      60/  4/  5 1016.5S
CAPE HENRY BUOY  1612      72                N/A     4/ 8
1ST LANDING BUOY 1700   70 71   80/  2/  4 1015.5F   2/ 6
CAPE CHARLES BUO 1626      66                N/A     3/ 8   3/ 8
OFFSHORE WE BUOY 1621      71                N/A     5/ 8   5/ 8
64NM E OF VA BCH 1650   66 65   20/  6/  8 1015.0F   5/ 8   5/ 8
DUCK PIER NC     1600   68 61   30/  5/  7 1014.8R
44056 DUCK FRF   1611      68                N/A     3/ 8
OREGON INLET NC  1600   71 72   30/ 10/ 12 1015.1R
HATTERAS NC      1600   73 74   30/ 10/ 14 1013.7F
DIAMOND SHLS NC  1550   76 80  360/ 10/ 12 1014.2    5/ 8   5/ 8
CAPE LOOKOUT NC  1700   76      70/ 10/ 10 1013.0F
$$




USA.gov is the U.S. government's official web portal to all federal, state and local government web resources and services.